Location: Newark
(15.4211°N, 108.6697°E)
Time: 06:18:11
(UTC+00:00)

Hubble Space Telescope - Visible Passes

Search period start: 07 December 2019 00:00
Search period end: 17 December 2019 00:00
Orbit: 536 x 540 km, 28.5° (Epoch: 06 December)

Date Brightness Start Highest point End Pass type
(mag) Time Alt. Az. Time Alt. Az. Time Alt. Az.
07 Dec 3.5 22:16:04 10° SSW 22:19:03 19° SSE 22:22:03 10° ESE visible
08 Dec 2.9 22:04:57 10° SSW 22:08:26 26° SSE 22:11:55 10° E visible
09 Dec 2.2 21:54:00 10° SW 21:57:49 36° SSE 22:01:37 10° E visible
10 Dec 1.5 21:43:59 15° SW 21:47:11 50° SSE 21:51:12 10° ENE visible
11 Dec 0.9 21:35:05 37° SW 21:36:35 70° SSE 21:40:42 10° ENE visible
12 Dec 0.6 21:25:59 85° NNW 21:25:59 85° NNW 21:30:08 10° ENE visible
13 Dec 1.7 21:16:43 39° NE 21:16:43 39° NE 21:19:31 10° ENE visible
14 Dec 2.8 21:07:17 21° NE 21:07:17 21° NE 21:08:51 10° NE visible
15 Dec 3.5 20:57:42 12° NE 20:57:42 12° NE 20:58:09 10° NE visible
15 Dec 2.7 22:33:29 10° NW 22:36:01 15° N 22:38:32 10° NNE visible
16 Dec 2.8 22:23:22 10° NW 22:25:35 14° N 22:27:51 10° NNE visible
